Time,TemperatureF,DewpointF,PressureIn,WindDirection,WindDirectionDegrees,WindSpeedMPH,WindSpeedGustMPH,Humidity,HourlyPrecipIn,Conditions,Clouds,dailyrainin,SoftwareType,DateUTC
2013-05-02 00:00:00,65.9,65.3,29.87,North,32767,0.0,0.0,98,0.00,,,3.82,Wunderground v.1.15,2013-05-02 05:00:00,
2013-05-02 00:05:00,66.1,65.5,29.88,North,32767,0.0,0.0,98,0.00,,,0.00,Wunderground v.1.15,2013-05-02 05:05:00,
2013-05-02 00:10:00,66.5,65.9,29.87,North,32767,0.0,0.0,98,0.00,,,0.00,Wunderground v.1.15,2013-05-02 05:10:00,
2013-05-02 00:15:00,66.4,65.8,29.86,North,32767,0.0,0.0,98,0.00,,,0.00,Wunderground v.1.15,2013-05-02 05:15:00,
2013-05-02 00:20:00,66.5,65.9,29.86,North,32767,0.0,0.0,98,0.00,,,0.00,Wunderground v.1.15,2013-05-02 05:20:00,
2013-05-02 00:25:00,66.3,65.7,29.87,North,32767,0.0,0.0,98,0.00,,,0.00,Wunderground v.1.15,2013-05-02 05:25:00,
2013-05-02 00:30:00,66.5,65.6,29.87,North,32767,0.0,0.0,97,0.00,,,0.00,Wunderground v.1.15,2013-05-02 05:30:00,
2013-05-02 00:35:00,66.6,65.7,29.88,North,32767,0.0,0.0,97,0.00,,,0.00,Wunderground v.1.15,2013-05-02 05:35:00,
2013-05-02 00:40:00,66.6,65.7,29.88,North,32767,0.0,0.0,97,0.00,,,0.00,Wunderground v.1.15,2013-05-02 05:40:00,
2013-05-02 00:45:00,66.6,65.7,29.87,North,32767,0.0,0.0,97,0.00,,,0.00,Wunderground v.1.15,2013-05-02 05:45:00,
2013-05-02 00:50:00,66.4,65.5,29.87,North,32767,0.0,0.0,97,0.00,,,0.00,Wunderground v.1.15,2013-05-02 05:50:00,
2013-05-02 00:55:00,66.1,65.2,29.87,North,32767,0.0,0.0,97,0.00,,,0.00,Wunderground v.1.15,2013-05-02 05:55:00,
2013-05-02 01:00:00,65.8,64.9,29.86,North,32767,0.0,0.0,97,0.00,,,0.00,Wunderground v.1.15,2013-05-02 06:00:00,
2013-05-02 01:05:00,65.9,65.0,29.85,North,32767,0.0,0.0,97,0.00,,,0.00,Wunderground v.1.15,2013-05-02 06:05:00,
2013-05-02 01:10:00,66.0,65.1,29.85,North,32767,0.0,0.0,97,0.00,,,0.00,Wunderground v.1.15,2013-05-02 06:10:00,
2013-05-02 01:15:00,66.1,65.2,29.85,North,32767,0.0,0.0,97,0.00,,,0.00,Wunderground v.1.15,2013-05-02 06:15:00,
2013-05-02 01:20:00,66.4,65.5,29.85,North,32767,0.0,0.0,97,0.00,,,0.00,Wunderground v.1.15,2013-05-02 06:20:00,
2013-05-02 01:25:00,66.4,65.5,29.85,North,32767,0.0,0.0,97,0.00,,,0.00,Wunderground v.1.15,2013-05-02 06:25:00,
2013-05-02 01:30:00,66.5,65.6,29.86,North,32767,0.0,0.0,97,0.00,,,0.00,Wunderground v.1.15,2013-05-02 06:30:00,
2013-05-02 01:35:00,66.6,65.7,29.86,North,32767,0.0,0.0,97,0.00,,,0.00,Wunderground v.1.15,2013-05-02 06:35:00,
2013-05-02 01:40:00,66.7,65.8,29.86,North,32767,0.0,0.0,97,0.00,,,0.00,Wunderground v.1.15,2013-05-02 06:40:00,
2013-05-02 01:45:00,66.9,65.7,29.86,North,32767,0.0,0.0,96,0.00,,,0.00,Wunderground v.1.15,2013-05-02 06:45:00,
2013-05-02 01:50:00,66.7,65.5,29.87,North,32767,0.0,0.0,96,0.00,,,0.00,Wunderground v.1.15,2013-05-02 06:50:00,
2013-05-02 01:55:00,66.6,65.4,29.87,North,32767,0.0,0.0,96,0.00,,,0.00,Wunderground v.1.15,2013-05-02 06:55:00,
2013-05-02 02:00:00,66.9,65.7,29.86,North,32767,0.0,0.0,96,0.00,,,0.00,Wunderground v.1.15,2013-05-02 07:00:00,
2013-05-02 02:05:00,67.2,66.0,29.86,North,32767,0.0,0.0,96,0.00,,,0.00,Wunderground v.1.15,2013-05-02 07:05:00,
2013-05-02 02:10:00,67.5,66.3,29.86,North,32767,0.0,0.0,96,0.00,,,0.00,Wunderground v.1.15,2013-05-02 07:10:00,
2013-05-02 02:15:00,67.9,66.7,29.85,North,32767,0.0,0.0,96,0.00,,,0.00,Wunderground v.1.15,2013-05-02 07:15:00,
2013-05-02 02:20:00,68.1,66.9,29.85,North,32767,0.0,0.0,96,0.00,,,0.00,Wunderground v.1.15,2013-05-02 07:20:00,
2013-05-02 02:25:00,68.1,66.9,29.84,North,32767,0.0,0.0,96,0.00,,,0.00,Wunderground v.1.15,2013-05-02 07:25:00,
2013-05-02 02:30:00,68.1,66.9,29.84,North,32767,0.0,0.0,96,0.00,,,0.00,Wunderground v.1.15,2013-05-02 07:30:00,
2013-05-02 02:35:00,68.0,66.8,29.84,North,32767,0.0,0.0,96,0.00,,,0.00,Wunderground v.1.15,2013-05-02 07:35:00,
2013-05-02 02:40:00,68.6,67.4,29.84,North,32767,0.0,0.0,96,0.00,,,0.00,Wunderground v.1.15,2013-05-02 07:40:00,
2013-05-02 02:45:00,69.0,67.8,29.84,North,32767,0.0,0.0,96,0.00,,,0.00,Wunderground v.1.15,2013-05-02 07:45:00,
2013-05-02 02:50:00,69.1,67.9,29.85,North,32767,0.0,0.0,96,0.00,,,0.00,Wunderground v.1.15,2013-05-02 07:50:00,
2013-05-02 02:55:00,69.2,68.0,29.84,North,32767,0.0,0.0,96,0.00,,,0.00,Wunderground v.1.15,2013-05-02 07:55:00,
2013-05-02 03:00:00,69.1,67.9,29.84,North,32767,0.0,0.0,96,0.00,,,0.00,Wunderground v.1.15,2013-05-02 08:00:00,
2013-05-02 03:05:00,68.9,67.7,29.85,North,32767,0.0,0.0,96,0.00,,,0.00,Wunderground v.1.15,2013-05-02 08:05:00,
2013-05-02 03:10:00,68.7,67.5,29.84,North,32767,0.0,0.0,96,0.00,,,0.00,Wunderground v.1.15,2013-05-02 08:10:00,
2013-05-02 03:15:00,68.4,67.2,29.84,North,32767,0.0,0.0,96,0.00,,,0.00,Wunderground v.1.15,2013-05-02 08:15:00,
2013-05-02 03:20:00,68.2,67.3,29.84,North,32767,0.0,0.0,97,0.00,,,0.00,Wunderground v.1.15,2013-05-02 08:20:00,
2013-05-02 03:25:00,68.2,67.3,29.85,North,32767,0.0,0.0,97,0.00,,,0.00,Wunderground v.1.15,2013-05-02 08:25:00,
2013-05-02 03:30:00,68.3,67.4,29.85,North,32767,0.0,0.0,97,0.00,,,0.00,Wunderground v.1.15,2013-05-02 08:30:00,
2013-05-02 03:35:00,68.4,67.5,29.86,North,32767,0.0,0.0,97,0.00,,,0.00,Wunderground v.1.15,2013-05-02 08:35:00,
2013-05-02 03:45:00,68.5,67.3,29.87,North,32767,0.0,0.0,96,0.00,,,0.00,Wunderground v.1.15,2013-05-02 08:45:00,
2013-05-02 03:50:00,69.0,67.5,29.86,North,32767,0.0,0.0,95,0.00,,,0.00,Wunderground v.1.15,2013-05-02 08:50:00,
2013-05-02 03:55:00,69.0,67.5,29.85,North,32767,0.0,0.0,95,0.00,,,0.00,Wunderground v.1.15,2013-05-02 08:55:00,
2013-05-02 04:00:00,69.2,67.7,29.86,North,32767,0.0,0.0,95,0.00,,,0.00,Wunderground v.1.15,2013-05-02 09:00:00,
2013-05-02 04:05:00,69.5,68.3,29.87,North,32767,0.0,0.0,96,0.00,,,0.00,Wunderground v.1.15,2013-05-02 09:05:00,
2013-05-02 04:10:00,69.4,68.2,29.87,North,32767,0.0,0.0,96,0.00,,,0.00,Wunderground v.1.15,2013-05-02 09:10:00,
2013-05-02 04:15:00,69.2,68.0,29.88,North,32767,0.0,0.0,96,0.00,,,0.00,Wunderground v.1.15,2013-05-02 09:15:00,
2013-05-02 04:20:00,69.1,67.6,29.88,North,32767,0.0,0.0,95,0.00,,,0.00,Wunderground v.1.15,2013-05-02 09:20:00,
2013-05-02 04:25:00,68.9,67.4,29.88,North,32767,0.0,0.0,95,0.00,,,0.00,Wunderground v.1.15,2013-05-02 09:25:00,
2013-05-02 04:30:00,68.6,67.1,29.88,North,32767,0.0,0.0,95,0.00,,,0.00,Wunderground v.1.15,2013-05-02 09:30:00,
2013-05-02 04:35:00,68.5,67.0,29.88,North,32767,0.0,0.0,95,0.00,,,0.00,Wunderground v.1.15,2013-05-02 09:35:00,
2013-05-02 04:40:00,68.6,67.1,29.88,North,32767,0.0,0.0,95,0.00,,,0.00,Wunderground v.1.15,2013-05-02 09:40:00,
2013-05-02 04:45:00,68.7,67.5,29.88,North,32767,0.0,0.0,96,0.00,,,0.00,Wunderground v.1.15,2013-05-02 09:45:00,
2013-05-02 04:50:00,68.4,67.2,29.88,North,32767,0.0,0.0,96,0.00,,,0.00,Wunderground v.1.15,2013-05-02 09:50:00,
2013-05-02 04:55:00,68.0,66.8,29.88,North,32767,0.0,0.0,96,0.00,,,0.00,Wunderground v.1.15,2013-05-02 09:55:00,
2013-05-02 05:00:00,67.7,66.5,29.88,North,32767,0.0,0.0,96,0.00,,,0.00,Wunderground v.1.15,2013-05-02 10:00:00,
2013-05-02 05:05:00,67.6,66.4,29.87,North,32767,0.0,0.0,96,0.00,,,0.00,Wunderground v.1.15,2013-05-02 10:05:00,
2013-05-02 05:10:00,67.5,66.3,29.88,North,32767,0.0,0.0,96,0.00,,,0.00,Wunderground v.1.15,2013-05-02 10:10:00,
2013-05-02 05:15:00,67.3,66.1,29.88,North,32767,0.0,0.0,96,0.00,,,0.00,Wunderground v.1.15,2013-05-02 10:15:00,
2013-05-02 05:20:00,67.1,65.9,29.88,North,32767,0.0,0.0,96,0.00,,,0.00,Wunderground v.1.15,2013-05-02 10:20:00,
2013-05-02 05:25:00,67.2,66.0,29.88,North,32767,0.0,0.0,96,0.00,,,0.00,Wunderground v.1.15,2013-05-02 10:25:00,
2013-05-02 05:30:00,67.2,66.0,29.88,North,32767,0.0,0.0,96,0.00,,,0.00,Wunderground v.1.15,2013-05-02 10:30:00,
2013-05-02 05:35:00,67.1,65.9,29.88,North,32767,0.0,0.0,96,0.00,,,0.00,Wunderground v.1.15,2013-05-02 10:35:00,
2013-05-02 05:40:00,67.1,65.9,29.88,North,32767,0.0,0.0,96,0.00,,,0.00,Wunderground v.1.15,2013-05-02 10:40:00,
2013-05-02 05:45:00,67.0,65.8,29.88,North,32767,0.0,0.0,96,0.00,,,0.00,Wunderground v.1.15,2013-05-02 10:45:00,
2013-05-02 05:50:00,66.9,65.7,29.88,North,32767,0.0,0.0,96,0.00,,,0.00,Wunderground v.1.15,2013-05-02 10:50:00,
2013-05-02 05:55:00,66.8,65.6,29.89,North,32767,0.0,0.0,96,0.00,,,0.00,Wunderground v.1.15,2013-05-02 10:55:00,
2013-05-02 06:00:00,66.7,65.5,29.89,North,32767,0.0,0.0,96,0.00,,,0.00,Wunderground v.1.15,2013-05-02 11:00:00,
2013-05-02 06:05:00,66.6,65.4,29.89,North,32767,0.0,0.0,96,0.00,,,0.00,Wunderground v.1.15,2013-05-02 11:05:00,
2013-05-02 06:10:00,66.4,65.2,29.89,North,32767,0.0,0.0,96,0.00,,,0.00,Wunderground v.1.15,2013-05-02 11:10:00,
2013-05-02 06:15:00,66.3,65.1,29.90,North,32767,0.0,0.0,96,0.00,,,0.00,Wunderground v.1.15,2013-05-02 11:15:00,
2013-05-02 06:20:00,66.3,65.1,29.90,North,32767,0.0,0.0,96,0.00,,,0.00,Wunderground v.1.15,2013-05-02 11:20:00,
2013-05-02 06:25:00,66.2,65.0,29.90,North,32767,0.0,0.0,96,0.00,,,0.00,Wunderground v.1.15,2013-05-02 11:25:00,
2013-05-02 06:30:00,66.2,65.0,29.91,North,32767,0.0,0.0,96,0.00,,,0.00,Wunderground v.1.15,2013-05-02 11:30:00,
2013-05-02 06:35:00,66.0,64.8,29.91,North,32767,0.0,0.0,96,0.00,,,0.00,Wunderground v.1.15,2013-05-02 11:35:00,
2013-05-02 06:45:00,65.7,64.5,29.91,North,32767,0.0,0.0,96,0.00,,,0.00,Wunderground v.1.15,2013-05-02 11:45:00,
2013-05-02 06:50:00,65.6,64.4,29.91,North,32767,0.0,0.0,96,0.00,,,0.00,Wunderground v.1.15,2013-05-02 11:50:00,
2013-05-02 06:55:00,65.4,64.5,29.92,North,32767,0.0,0.0,97,0.00,,,0.00,Wunderground v.1.15,2013-05-02 11:55:00,
2013-05-02 07:00:00,65.2,64.3,29.92,North,32767,0.0,0.0,97,0.00,,,0.00,Wunderground v.1.15,2013-05-02 12:00:00,
2013-05-02 07:05:00,65.0,64.1,29.92,North,32767,0.0,0.0,97,0.00,,,0.00,Wunderground v.1.15,2013-05-02 12:05:00,
2013-05-02 07:15:00,64.7,63.8,29.92,North,32767,0.0,0.0,97,0.00,,,0.01,Wunderground v.1.15,2013-05-02 12:15:00,
2013-05-02 07:20:00,64.5,63.6,29.92,North,32767,0.0,0.0,97,0.00,,,0.01,Wunderground v.1.15,2013-05-02 12:20:00,
2013-05-02 07:25:00,64.4,63.5,29.92,North,32767,0.0,0.0,97,0.00,,,0.01,Wunderground v.1.15,2013-05-02 12:25:00,
2013-05-02 07:30:00,64.4,63.5,29.92,North,32767,0.0,0.0,97,0.00,,,0.01,Wunderground v.1.15,2013-05-02 12:30:00,
2013-05-02 07:35:00,64.5,63.6,29.92,North,32767,0.0,0.0,97,0.00,,,0.01,Wunderground v.1.15,2013-05-02 12:35:00,
2013-05-02 07:40:00,64.5,63.6,29.92,North,32767,0.0,0.0,97,0.00,,,0.01,Wunderground v.1.15,2013-05-02 12:40:00,
2013-05-02 07:45:00,64.5,63.6,29.92,North,32767,0.0,0.0,97,0.00,,,0.01,Wunderground v.1.15,2013-05-02 12:45:00,
2013-05-02 07:50:00,64.6,63.7,29.92,North,32767,0.0,0.0,97,0.00,,,0.01,Wunderground v.1.15,2013-05-02 12:50:00,
2013-05-02 07:55:00,64.5,63.6,29.92,North,32767,0.0,0.0,97,0.00,,,0.01,Wunderground v.1.15,2013-05-02 12:55:00,
2013-05-02 08:00:00,64.5,63.6,29.93,North,32767,0.0,0.0,97,0.00,,,0.01,Wunderground v.1.15,2013-05-02 13:00:00,
2013-05-02 08:05:00,64.5,63.6,29.93,North,32767,0.0,0.0,97,0.00,,,0.01,Wunderground v.1.15,2013-05-02 13:05:00,
2013-05-02 08:15:00,64.5,63.6,29.93,North,32767,0.0,0.0,97,0.00,,,0.01,Wunderground v.1.15,2013-05-02 13:15:00,
2013-05-02 08:20:00,64.5,63.6,29.93,North,32767,0.0,0.0,97,0.00,,,0.01,Wunderground v.1.15,2013-05-02 13:20:00,
2013-05-02 08:25:00,64.5,63.6,29.94,North,32767,0.0,0.0,97,0.00,,,0.01,Wunderground v.1.15,2013-05-02 13:25:00,
2013-05-02 08:30:00,64.5,63.6,29.94,North,32767,0.0,0.0,97,0.00,,,0.01,Wunderground v.1.15,2013-05-02 13:30:00,
2013-05-02 08:35:00,64.5,63.6,29.94,North,32767,0.0,0.0,97,0.00,,,0.01,Wunderground v.1.15,2013-05-02 13:35:00,
2013-05-02 08:40:00,64.5,63.6,29.93,North,32767,0.0,0.0,97,0.00,,,0.01,Wunderground v.1.15,2013-05-02 13:40:00,
2013-05-02 08:45:00,64.5,63.6,29.93,North,32767,0.0,0.0,97,0.00,,,0.02,Wunderground v.1.15,2013-05-02 13:45:00,
2013-05-02 08:50:00,64.5,63.6,29.93,North,32767,0.0,0.0,97,0.00,,,0.02,Wunderground v.1.15,2013-05-02 13:50:00,
2013-05-02 08:55:00,64.5,63.6,29.94,North,32767,0.0,0.0,97,0.07,,,0.03,Wunderground v.1.15,2013-05-02 13:55:00,
2013-05-02 09:00:00,64.5,63.6,29.94,North,32767,0.0,0.0,97,0.09,,,0.04,Wunderground v.1.15,2013-05-02 14:00:00,
2013-05-02 09:05:00,64.6,63.7,29.95,North,32767,0.0,0.0,97,0.08,,,0.04,Wunderground v.1.15,2013-05-02 14:05:00,
2013-05-02 09:10:00,64.7,63.8,29.95,North,32767,0.0,0.0,97,0.07,,,0.05,Wunderground v.1.15,2013-05-02 14:10:00,
2013-05-02 09:15:00,64.8,63.9,29.95,North,32767,0.0,0.0,97,0.14,,,0.06,Wunderground v.1.15,2013-05-02 14:15:00,
2013-05-02 09:20:00,64.9,64.0,29.95,North,32767,0.0,0.0,97,0.06,,,0.06,Wunderground v.1.15,2013-05-02 14:20:00,
2013-05-02 09:25:00,64.9,64.0,29.95,North,32767,0.0,0.0,97,0.04,,,0.06,Wunderground v.1.15,2013-05-02 14:25:00,
2013-05-02 09:30:00,65.0,64.1,29.95,North,32767,0.0,0.0,97,0.04,,,0.07,Wunderground v.1.15,2013-05-02 14:30:00,
2013-05-02 09:35:00,65.1,64.2,29.95,North,32767,0.0,0.0,97,0.04,,,0.07,Wunderground v.1.15,2013-05-02 14:35:00,
2013-05-02 09:40:00,65.2,64.3,29.95,North,32767,0.0,0.0,97,0.04,,,0.07,Wunderground v.1.15,2013-05-02 14:40:00,
2013-05-02 09:45:00,65.3,64.4,29.95,North,32767,0.0,0.0,97,0.00,,,0.07,Wunderground v.1.15,2013-05-02 14:45:00,
2013-05-02 09:50:00,65.3,64.4,29.95,North,32767,0.0,0.0,97,0.00,,,0.08,Wunderground v.1.15,2013-05-02 14:50:00,
2013-05-02 09:55:00,65.2,64.3,29.95,North,32767,0.0,0.0,97,0.00,,,0.08,Wunderground v.1.15,2013-05-02 14:55:00,
2013-05-02 10:00:00,65.2,64.3,29.94,North,32767,0.0,0.0,97,0.00,,,0.08,Wunderground v.1.15,2013-05-02 15:00:00,
2013-05-02 10:05:00,65.3,64.4,29.94,North,32767,0.0,0.0,97,0.05,,,0.09,Wunderground v.1.15,2013-05-02 15:05:00,
2013-05-02 10:10:00,65.4,64.8,29.94,North,32767,0.0,0.0,98,0.05,,,0.09,Wunderground v.1.15,2013-05-02 15:10:00,
2013-05-02 10:15:00,65.5,64.9,29.94,North,32767,0.0,0.0,98,0.06,,,0.10,Wunderground v.1.15,2013-05-02 15:15:00,
2013-05-02 10:20:00,65.6,65.0,29.94,North,32767,0.0,0.0,98,0.06,,,0.10,Wunderground v.1.15,2013-05-02 15:20:00,
2013-05-02 10:25:00,65.7,64.8,29.94,North,32767,0.0,0.0,97,0.04,,,0.10,Wunderground v.1.15,2013-05-02 15:25:00,
2013-05-02 10:30:00,65.8,64.9,29.94,North,32767,0.0,0.0,97,0.00,,,0.10,Wunderground v.1.15,2013-05-02 15:30:00,
2013-05-02 10:35:00,65.9,65.0,29.95,North,32767,0.0,0.0,97,0.00,,,0.10,Wunderground v.1.15,2013-05-02 15:35:00,
2013-05-02 10:40:00,66.1,65.5,29.95,North,32767,0.0,0.0,98,0.00,,,0.10,Wunderground v.1.15,2013-05-02 15:40:00,
2013-05-02 10:45:00,66.2,65.6,29.95,North,32767,0.0,0.0,98,0.00,,,0.10,Wunderground v.1.15,2013-05-02 15:45:00,
2013-05-02 10:50:00,66.4,65.5,29.95,North,32767,0.0,0.0,97,0.00,,,0.10,Wunderground v.1.15,2013-05-02 15:50:00,
2013-05-02 11:00:00,66.6,65.7,29.94,North,32767,0.0,0.0,97,0.00,,,0.10,Wunderground v.1.15,2013-05-02 16:00:00,
2013-05-02 11:05:00,66.7,65.8,29.94,North,32767,0.0,0.0,97,0.00,,,0.10,Wunderground v.1.15,2013-05-02 16:05:00,
2013-05-02 11:10:00,66.8,65.9,29.95,North,32767,0.0,0.0,97,0.00,,,0.10,Wunderground v.1.15,2013-05-02 16:10:00,
2013-05-02 11:15:00,67.0,66.1,29.94,North,32767,0.0,0.0,97,0.00,,,0.10,Wunderground v.1.15,2013-05-02 16:15:00,
2013-05-02 11:20:00,67.1,66.2,29.95,North,32767,0.0,0.0,97,0.00,,,0.10,Wunderground v.1.15,2013-05-02 16:20:00,
2013-05-02 11:25:00,67.2,66.3,29.95,North,32767,0.0,0.0,97,0.00,,,0.10,Wunderground v.1.15,2013-05-02 16:25:00,
2013-05-02 11:30:00,67.3,66.4,29.95,North,32767,0.0,0.0,97,0.00,,,0.10,Wunderground v.1.15,2013-05-02 16:30:00,
2013-05-02 11:35:00,67.4,66.5,29.95,North,32767,0.0,0.0,97,0.00,,,0.10,Wunderground v.1.15,2013-05-02 16:35:00,
2013-05-02 11:40:00,67.5,66.6,29.95,North,32767,0.0,0.0,97,0.00,,,0.10,Wunderground v.1.15,2013-05-02 16:40:00,
2013-05-02 11:45:00,67.4,66.5,29.94,North,32767,0.0,0.0,97,0.00,,,0.10,Wunderground v.1.15,2013-05-02 16:45:00,
2013-05-02 11:50:00,67.5,66.6,29.94,North,32767,0.0,0.0,97,0.00,,,0.10,Wunderground v.1.15,2013-05-02 16:50:00,
2013-05-02 11:55:00,67.6,66.7,29.94,North,32767,0.0,0.0,97,0.00,,,0.10,Wunderground v.1.15,2013-05-02 16:55:00,
2013-05-02 12:00:00,67.7,66.5,29.94,North,32767,0.0,0.0,96,0.00,,,0.10,Wunderground v.1.15,2013-05-02 17:00:00,
2013-05-02 12:05:00,67.9,66.7,29.94,North,32767,0.0,0.0,96,0.00,,,0.10,Wunderground v.1.15,2013-05-02 17:05:00,
2013-05-02 12:10:00,67.9,66.7,29.94,North,32767,0.0,0.0,96,0.00,,,0.10,Wunderground v.1.15,2013-05-02 17:10:00,
2013-05-02 12:15:00,68.0,66.8,29.94,North,32767,0.0,0.0,96,0.00,,,0.10,Wunderground v.1.15,2013-05-02 17:15:00,
2013-05-02 12:20:00,68.0,66.8,29.94,North,32767,0.0,0.0,96,0.00,,,0.10,Wunderground v.1.15,2013-05-02 17:20:00,
2013-05-02 12:25:00,68.0,66.8,29.94,North,32767,0.0,0.0,96,0.00,,,0.10,Wunderground v.1.15,2013-05-02 17:25:00,
2013-05-02 12:30:00,68.0,66.8,29.93,North,32767,0.0,0.0,96,0.00,,,0.10,Wunderground v.1.15,2013-05-02 17:30:00,
2013-05-02 12:35:00,68.2,67.0,29.93,North,32767,0.0,0.0,96,0.00,,,0.10,Wunderground v.1.15,2013-05-02 17:35:00,
2013-05-02 12:40:00,68.2,67.0,29.93,North,32767,0.0,0.0,96,0.00,,,0.10,Wunderground v.1.15,2013-05-02 17:40:00,
2013-05-02 12:45:00,68.2,67.0,29.93,North,32767,0.0,0.0,96,0.00,,,0.10,Wunderground v.1.15,2013-05-02 17:45:00,
2013-05-02 12:50:00,68.2,67.0,29.93,North,32767,0.0,0.0,96,0.00,,,0.10,Wunderground v.1.15,2013-05-02 17:50:00,
2013-05-02 12:55:00,68.3,67.1,29.93,North,32767,0.0,0.0,96,0.00,,,0.10,Wunderground v.1.15,2013-05-02 17:55:00,
2013-05-02 13:00:00,68.3,67.1,29.93,North,32767,0.0,0.0,96,0.00,,,0.10,Wunderground v.1.15,2013-05-02 18:00:00,
2013-05-02 13:05:00,68.3,67.1,29.93,North,32767,0.0,0.0,96,0.00,,,0.10,Wunderground v.1.15,2013-05-02 18:05:00,
2013-05-02 13:10:00,68.3,67.1,29.93,North,32767,0.0,0.0,96,0.00,,,0.10,Wunderground v.1.15,2013-05-02 18:10:00,
2013-05-02 13:15:00,68.4,67.2,29.94,North,32767,0.0,0.0,96,0.00,,,0.10,Wunderground v.1.15,2013-05-02 18:15:00,
2013-05-02 13:20:00,68.6,67.4,29.93,North,32767,0.0,0.0,96,0.00,,,0.10,Wunderground v.1.15,2013-05-02 18:20:00,
2013-05-02 13:25:00,69.2,68.0,29.93,North,32767,0.0,0.0,96,0.00,,,0.10,Wunderground v.1.15,2013-05-02 18:25:00,
2013-05-02 13:30:00,69.6,68.4,29.93,North,32767,0.0,0.0,96,0.00,,,0.10,Wunderground v.1.15,2013-05-02 18:30:00,
2013-05-02 13:35:00,69.8,68.3,29.93,North,32767,0.0,0.0,95,0.00,,,0.10,Wunderground v.1.15,2013-05-02 18:35:00,
2013-05-02 13:40:00,70.0,68.5,29.93,North,32767,0.0,0.0,95,0.00,,,0.10,Wunderground v.1.15,2013-05-02 18:40:00,
2013-05-02 13:45:00,70.4,68.9,29.93,North,32767,0.0,0.0,95,0.00,,,0.10,Wunderground v.1.15,2013-05-02 18:45:00,
2013-05-02 13:50:00,70.8,69.3,29.93,North,32767,0.0,0.0,95,0.00,,,0.10,Wunderground v.1.15,2013-05-02 18:50:00,
2013-05-02 13:55:00,71.0,69.2,29.92,North,32767,0.0,0.0,94,0.00,,,0.10,Wunderground v.1.15,2013-05-02 18:55:00,
2013-05-02 14:00:00,71.1,69.3,29.92,North,32767,0.0,0.0,94,0.00,,,0.10,Wunderground v.1.15,2013-05-02 19:00:00,
2013-05-02 14:05:00,71.3,69.2,29.92,North,32767,0.0,0.0,93,0.00,,,0.10,Wunderground v.1.15,2013-05-02 19:05:00,
2013-05-02 14:10:00,71.2,69.1,29.92,North,32767,0.0,0.0,93,0.00,,,0.10,Wunderground v.1.15,2013-05-02 19:10:00,
2013-05-02 14:20:00,71.6,69.5,29.92,North,32767,0.0,0.0,93,0.00,,,0.10,Wunderground v.1.15,2013-05-02 19:20:00,
2013-05-02 14:25:00,71.8,69.7,29.92,North,32767,0.0,0.0,93,0.00,,,0.10,Wunderground v.1.15,2013-05-02 19:25:00,
2013-05-02 14:30:00,72.0,69.5,29.92,North,32767,0.0,0.0,92,0.00,,,0.10,Wunderground v.1.15,2013-05-02 19:30:00,
2013-05-02 14:35:00,72.0,69.5,29.92,North,32767,0.0,0.0,92,0.00,,,0.10,Wunderground v.1.15,2013-05-02 19:35:00,
2013-05-02 14:40:00,71.8,69.3,29.91,North,32767,0.0,0.0,92,0.00,,,0.10,Wunderground v.1.15,2013-05-02 19:40:00,
2013-05-02 14:45:00,71.9,69.4,29.91,North,32767,0.0,0.0,92,0.00,,,0.10,Wunderground v.1.15,2013-05-02 19:45:00,
2013-05-02 14:50:00,71.9,69.4,29.91,North,32767,0.0,0.0,92,0.00,,,0.10,Wunderground v.1.15,2013-05-02 19:50:00,
2013-05-02 14:55:00,71.8,69.3,29.91,North,32767,0.0,0.0,92,0.00,,,0.10,Wunderground v.1.15,2013-05-02 19:55:00,
2013-05-02 15:00:00,71.8,69.3,29.91,North,32767,0.0,0.0,92,0.00,,,0.10,Wunderground v.1.15,2013-05-02 20:00:00,
2013-05-02 15:05:00,71.7,69.3,29.91,North,32767,0.0,0.0,92,0.00,,,0.10,Wunderground v.1.15,2013-05-02 20:05:00,
2013-05-02 15:10:00,71.8,69.3,29.91,North,32767,0.0,0.0,92,0.00,,,0.10,Wunderground v.1.15,2013-05-02 20:10:00,
2013-05-02 15:15:00,71.7,69.3,29.91,North,32767,0.0,0.0,92,0.00,,,0.10,Wunderground v.1.15,2013-05-02 20:15:00,
2013-05-02 15:20:00,71.5,69.4,29.91,North,32767,0.0,0.0,93,0.00,,,0.10,Wunderground v.1.15,2013-05-02 20:20:00,
2013-05-02 15:25:00,71.2,69.1,29.91,North,32767,0.0,0.0,93,0.00,,,0.10,Wunderground v.1.15,2013-05-02 20:25:00,
2013-05-02 15:30:00,71.1,69.0,29.91,North,32767,0.0,0.0,93,0.00,,,0.10,Wunderground v.1.15,2013-05-02 20:30:00,
2013-05-02 15:35:00,71.0,68.9,29.91,North,32767,0.0,0.0,93,0.00,,,0.10,Wunderground v.1.15,2013-05-02 20:35:00,
2013-05-02 15:40:00,71.0,68.9,29.91,North,32767,0.0,0.0,93,0.00,,,0.10,Wunderground v.1.15,2013-05-02 20:40:00,
2013-05-02 15:45:00,71.0,68.6,29.91,North,32767,0.0,0.0,92,0.00,,,0.10,Wunderground v.1.15,2013-05-02 20:45:00,
2013-05-02 15:50:00,70.8,68.7,29.91,North,32767,0.0,0.0,93,0.00,,,0.10,Wunderground v.1.15,2013-05-02 20:50:00,
2013-05-02 15:55:00,70.6,68.5,29.91,North,32767,0.0,0.0,93,0.00,,,0.10,Wunderground v.1.15,2013-05-02 20:55:00,
2013-05-02 16:00:00,70.5,68.4,29.90,North,32767,0.0,0.0,93,0.00,,,0.10,Wunderground v.1.15,2013-05-02 21:00:00,
2013-05-02 16:05:00,70.2,68.7,29.91,North,32767,0.0,0.0,95,0.00,,,0.11,Wunderground v.1.15,2013-05-02 21:05:00,
2013-05-02 16:10:00,69.8,68.3,29.90,North,32767,0.0,0.0,95,0.00,,,0.11,Wunderground v.1.15,2013-05-02 21:10:00,
2013-05-02 16:15:00,69.4,67.9,29.91,North,32767,0.0,0.0,95,0.00,,,0.11,Wunderground v.1.15,2013-05-02 21:15:00,
2013-05-02 16:20:00,69.0,67.8,29.91,North,32767,0.0,0.0,96,0.00,,,0.11,Wunderground v.1.15,2013-05-02 21:20:00,
2013-05-02 16:25:00,68.8,67.6,29.91,North,32767,0.0,0.0,96,0.00,,,0.12,Wunderground v.1.15,2013-05-02 21:25:00,
2013-05-02 16:30:00,68.5,67.3,29.91,North,32767,0.0,0.0,96,0.00,,,0.12,Wunderground v.1.15,2013-05-02 21:30:00,
2013-05-02 16:35:00,68.3,67.1,29.90,North,32767,0.0,0.0,96,0.00,,,0.12,Wunderground v.1.15,2013-05-02 21:35:00,
2013-05-02 16:40:00,68.3,67.1,29.90,North,32767,0.0,0.0,96,0.05,,,0.13,Wunderground v.1.15,2013-05-02 21:40:00,
2013-05-02 16:45:00,68.3,67.1,29.90,North,32767,0.0,0.0,96,0.08,,,0.14,Wunderground v.1.15,2013-05-02 21:45:00,
2013-05-02 16:50:00,68.4,67.2,29.90,North,32767,0.0,0.0,96,0.08,,,0.14,Wunderground v.1.15,2013-05-02 21:50:00,
2013-05-02 16:55:00,68.4,67.5,29.90,North,32767,0.0,0.0,97,0.05,,,0.14,Wunderground v.1.15,2013-05-02 21:55:00,
2013-05-02 17:00:00,68.4,67.5,29.90,North,32767,0.0,0.0,97,0.04,,,0.14,Wunderground v.1.15,2013-05-02 22:00:00,
2013-05-02 17:05:00,68.5,67.6,29.90,North,32767,0.0,0.0,97,0.00,,,0.14,Wunderground v.1.15,2013-05-02 22:05:00,
2013-05-02 17:15:00,68.6,67.7,29.90,North,32767,0.0,0.0,97,0.00,,,0.14,Wunderground v.1.15,2013-05-02 22:15:00,
2013-05-02 17:20:00,68.7,67.8,29.89,North,32767,0.0,0.0,97,0.00,,,0.14,Wunderground v.1.15,2013-05-02 22:20:00,
2013-05-02 17:25:00,69.0,68.1,29.89,North,32767,0.0,0.0,97,0.00,,,0.14,Wunderground v.1.15,2013-05-02 22:25:00,
2013-05-02 17:30:00,69.2,68.3,29.89,North,32767,0.0,0.0,97,0.00,,,0.14,Wunderground v.1.15,2013-05-02 22:30:00,
2013-05-02 17:35:00,69.1,68.2,29.89,North,32767,0.0,0.0,97,0.00,,,0.14,Wunderground v.1.15,2013-05-02 22:35:00,
2013-05-02 17:40:00,69.4,68.2,29.89,North,32767,0.0,0.0,96,0.00,,,0.14,Wunderground v.1.15,2013-05-02 22:40:00,
2013-05-02 17:50:00,69.7,68.5,29.90,North,32767,0.0,0.0,96,0.00,,,0.14,Wunderground v.1.15,2013-05-02 22:50:00,
2013-05-02 17:55:00,69.8,68.6,29.90,North,32767,0.0,0.0,96,0.00,,,0.14,Wunderground v.1.15,2013-05-02 22:55:00,
2013-05-02 18:00:00,69.9,68.4,29.90,North,32767,0.0,0.0,95,0.00,,,0.14,Wunderground v.1.15,2013-05-02 23:00:00,
2013-05-02 18:05:00,70.0,68.5,29.90,North,32767,0.0,0.0,95,0.00,,,0.14,Wunderground v.1.15,2013-05-02 23:05:00,
2013-05-02 18:10:00,70.1,68.6,29.90,North,32767,0.0,0.0,95,0.00,,,0.14,Wunderground v.1.15,2013-05-02 23:10:00,
2013-05-02 18:15:00,70.1,68.6,29.90,North,32767,0.0,0.0,95,0.00,,,0.14,Wunderground v.1.15,2013-05-02 23:15:00,
2013-05-02 18:20:00,70.1,68.9,29.89,North,32767,0.0,0.0,96,0.00,,,0.14,Wunderground v.1.15,2013-05-02 23:20:00,
2013-05-02 18:25:00,70.1,68.9,29.90,North,32767,0.0,0.0,96,0.00,,,0.14,Wunderground v.1.15,2013-05-02 23:25:00,
2013-05-02 18:30:00,70.0,68.8,29.90,North,32767,0.0,0.0,96,0.00,,,0.14,Wunderground v.1.15,2013-05-02 23:30:00,
2013-05-02 18:35:00,69.9,68.7,29.90,North,32767,0.0,0.0,96,0.00,,,0.14,Wunderground v.1.15,2013-05-02 23:35:00,
2013-05-02 18:40:00,69.9,68.7,29.90,North,32767,0.0,0.0,96,0.00,,,0.14,Wunderground v.1.15,2013-05-02 23:40:00,
2013-05-02 18:45:00,69.8,68.6,29.90,North,32767,0.0,0.0,96,0.00,,,0.14,Wunderground v.1.15,2013-05-02 23:45:00,
2013-05-02 18:50:00,69.7,68.5,29.90,North,32767,0.0,0.0,96,0.00,,,0.14,Wunderground v.1.15,2013-05-02 23:50:00,
2013-05-02 18:55:00,69.5,68.3,29.90,North,32767,0.0,0.0,96,0.00,,,0.14,Wunderground v.1.15,2013-05-02 23:55:00,
2013-05-02 19:00:00,69.4,68.2,29.90,North,32767,0.0,0.0,96,0.00,,,0.14,Wunderground v.1.15,2013-05-03 00:00:00,
2013-05-02 19:05:00,69.3,68.1,29.90,North,32767,0.0,0.0,96,0.00,,,0.14,Wunderground v.1.15,2013-05-03 00:05:00,
2013-05-02 19:10:00,69.2,68.0,29.90,North,32767,0.0,0.0,96,0.00,,,0.14,Wunderground v.1.15,2013-05-03 00:10:00,
2013-05-02 19:15:00,69.0,67.8,29.90,North,32767,0.0,0.0,96,0.00,,,0.14,Wunderground v.1.15,2013-05-03 00:15:00,
2013-05-02 19:20:00,69.0,68.1,29.90,North,32767,0.0,0.0,97,0.00,,,0.14,Wunderground v.1.15,2013-05-03 00:20:00,
2013-05-02 19:25:00,68.8,67.9,29.90,North,32767,0.0,0.0,97,0.00,,,0.14,Wunderground v.1.15,2013-05-03 00:25:00,
2013-05-02 19:30:00,68.7,67.5,29.90,North,32767,0.0,0.0,96,0.00,,,0.14,Wunderground v.1.15,2013-05-03 00:30:00,
2013-05-02 19:35:00,68.5,67.3,29.90,North,32767,0.0,0.0,96,0.00,,,0.14,Wunderground v.1.15,2013-05-03 00:35:00,
2013-05-02 19:45:00,68.2,67.3,29.90,North,32767,0.0,0.0,97,0.00,,,0.14,Wunderground v.1.15,2013-05-03 00:45:00,
2013-05-02 19:50:00,68.1,67.2,29.90,North,32767,0.0,0.0,97,0.00,,,0.14,Wunderground v.1.15,2013-05-03 00:50:00,
2013-05-02 19:55:00,67.9,67.0,29.90,North,32767,0.0,0.0,97,0.00,,,0.14,Wunderground v.1.15,2013-05-03 00:55:00,
2013-05-02 20:00:00,67.8,66.9,29.90,North,32767,0.0,0.0,97,0.00,,,0.14,Wunderground v.1.15,2013-05-03 01:00:00,
2013-05-02 20:05:00,67.7,66.8,29.90,North,32767,0.0,0.0,97,0.00,,,0.14,Wunderground v.1.15,2013-05-03 01:05:00,
2013-05-02 20:10:00,67.7,66.8,29.90,North,32767,0.0,0.0,97,0.00,,,0.14,Wunderground v.1.15,2013-05-03 01:10:00,
2013-05-02 20:15:00,67.6,66.7,29.90,North,32767,0.0,0.0,97,0.00,,,0.14,Wunderground v.1.15,2013-05-03 01:15:00,
2013-05-02 20:20:00,67.5,66.6,29.90,North,32767,0.0,0.0,97,0.00,,,0.14,Wunderground v.1.15,2013-05-03 01:20:00,
2013-05-02 20:25:00,67.4,66.5,29.90,North,32767,0.0,0.0,97,0.00,,,0.14,Wunderground v.1.15,2013-05-03 01:25:00,
2013-05-02 20:30:00,67.4,66.5,29.90,North,32767,0.0,0.0,97,0.00,,,0.14,Wunderground v.1.15,2013-05-03 01:30:00,
2013-05-02 20:35:00,67.3,66.4,29.91,North,32767,0.0,0.0,97,0.00,,,0.14,Wunderground v.1.15,2013-05-03 01:35:00,
2013-05-02 20:40:00,67.2,66.3,29.91,North,32767,0.0,0.0,97,0.00,,,0.14,Wunderground v.1.15,2013-05-03 01:40:00,
2013-05-02 20:45:00,67.2,66.3,29.91,North,32767,0.0,0.0,97,0.00,,,0.14,Wunderground v.1.15,2013-05-03 01:45:00,
2013-05-02 20:50:00,67.1,66.2,29.91,North,32767,0.0,0.0,97,0.00,,,0.14,Wunderground v.1.15,2013-05-03 01:50:00,
2013-05-02 20:55:00,67.1,66.2,29.91,North,32767,0.0,0.0,97,0.00,,,0.14,Wunderground v.1.15,2013-05-03 01:55:00,
2013-05-02 21:00:00,67.0,66.1,29.92,North,32767,0.0,0.0,97,0.00,,,0.14,Wunderground v.1.15,2013-05-03 02:00:00,
2013-05-02 21:05:00,67.0,66.1,29.92,North,32767,0.0,0.0,97,0.00,,,0.14,Wunderground v.1.15,2013-05-03 02:05:00,
2013-05-02 21:10:00,66.9,66.0,29.92,North,32767,0.0,0.0,97,0.00,,,0.14,Wunderground v.1.15,2013-05-03 02:10:00,
2013-05-02 21:15:00,66.8,65.9,29.92,North,32767,0.0,0.0,97,0.00,,,0.14,Wunderground v.1.15,2013-05-03 02:15:00,
2013-05-02 21:20:00,66.8,65.9,29.92,North,32767,0.0,0.0,97,0.00,,,0.14,Wunderground v.1.15,2013-05-03 02:20:00,
2013-05-02 21:25:00,66.7,65.8,29.92,North,32767,0.0,0.0,97,0.00,,,0.14,Wunderground v.1.15,2013-05-03 02:25:00,
2013-05-02 21:30:00,66.7,65.8,29.92,North,32767,0.0,0.0,97,0.00,,,0.14,Wunderground v.1.15,2013-05-03 02:30:00,
2013-05-02 21:35:00,66.6,65.7,29.92,North,32767,0.0,0.0,97,0.00,,,0.14,Wunderground v.1.15,2013-05-03 02:35:00,
2013-05-02 21:40:00,66.7,65.8,29.92,North,32767,0.0,0.0,97,0.00,,,0.14,Wunderground v.1.15,2013-05-03 02:40:00,
2013-05-02 21:45:00,66.6,65.7,29.92,North,32767,0.0,0.0,97,0.00,,,0.14,Wunderground v.1.15,2013-05-03 02:45:00,
2013-05-02 21:50:00,66.6,65.7,29.92,North,32767,0.0,0.0,97,0.00,,,0.14,Wunderground v.1.15,2013-05-03 02:50:00,
2013-05-02 21:55:00,66.6,65.7,29.92,North,32767,0.0,0.0,97,0.00,,,0.14,Wunderground v.1.15,2013-05-03 02:55:00,
2013-05-02 22:05:00,66.7,65.8,29.92,North,32767,0.0,0.0,97,0.00,,,0.14,Wunderground v.1.15,2013-05-03 03:05:00,
2013-05-02 22:10:00,66.8,66.2,29.93,North,32767,0.0,0.0,98,0.00,,,0.14,Wunderground v.1.15,2013-05-03 03:10:00,
2013-05-02 22:15:00,66.8,66.2,29.92,North,32767,0.0,0.0,98,0.00,,,0.14,Wunderground v.1.15,2013-05-03 03:15:00,
2013-05-02 22:20:00,66.9,66.3,29.93,North,32767,0.0,0.0,98,0.00,,,0.14,Wunderground v.1.15,2013-05-03 03:20:00,
2013-05-02 22:25:00,67.0,66.4,29.93,North,32767,0.0,0.0,98,0.00,,,0.14,Wunderground v.1.15,2013-05-03 03:25:00,
2013-05-02 22:30:00,67.2,66.6,29.93,North,32767,0.0,0.0,98,0.00,,,0.14,Wunderground v.1.15,2013-05-03 03:30:00,
2013-05-02 22:35:00,67.2,66.6,29.92,North,32767,0.0,0.0,98,0.00,,,0.14,Wunderground v.1.15,2013-05-03 03:35:00,
2013-05-02 22:40:00,67.2,66.3,29.92,North,32767,0.0,0.0,97,0.00,,,0.14,Wunderground v.1.15,2013-05-03 03:40:00,
2013-05-02 22:45:00,67.2,66.3,29.92,North,32767,0.0,0.0,97,0.00,,,0.14,Wunderground v.1.15,2013-05-03 03:45:00,
2013-05-02 22:50:00,67.2,66.3,29.92,North,32767,0.0,0.0,97,0.00,,,0.14,Wunderground v.1.15,2013-05-03 03:50:00,
2013-05-02 22:55:00,67.2,66.3,29.92,North,32767,0.0,0.0,97,0.00,,,0.14,Wunderground v.1.15,2013-05-03 03:55:00,
2013-05-02 23:00:00,67.2,66.3,29.92,North,32767,0.0,0.0,97,0.00,,,0.15,Wunderground v.1.15,2013-05-03 04:00:00,
2013-05-02 23:05:00,67.1,66.2,29.92,North,32767,0.0,0.0,97,0.00,,,0.15,Wunderground v.1.15,2013-05-03 04:05:00,
2013-05-02 23:15:00,67.1,66.2,29.92,North,32767,0.0,0.0,97,0.00,,,0.15,Wunderground v.1.15,2013-05-03 04:15:00,
2013-05-02 23:20:00,67.1,66.2,29.92,North,32767,0.0,0.0,97,0.00,,,0.16,Wunderground v.1.15,2013-05-03 04:20:00,
2013-05-02 23:25:00,67.1,66.2,29.92,North,32767,0.0,0.0,97,0.00,,,0.16,Wunderground v.1.15,2013-05-03 04:25:00,
2013-05-02 23:30:00,67.1,66.5,29.92,North,32767,0.0,0.0,98,0.00,,,0.16,Wunderground v.1.15,2013-05-03 04:30:00,
2013-05-02 23:35:00,67.1,66.2,29.92,North,32767,0.0,0.0,97,0.00,,,0.16,Wunderground v.1.15,2013-05-03 04:35:00,
2013-05-02 23:40:00,67.1,66.2,29.91,North,32767,0.0,0.0,97,0.00,,,0.16,Wunderground v.1.15,2013-05-03 04:40:00,
2013-05-02 23:45:00,67.2,66.3,29.91,North,32767,0.0,0.0,97,0.00,,,0.16,Wunderground v.1.15,2013-05-03 04:45:00,
2013-05-02 23:50:00,67.4,66.5,29.91,North,32767,0.0,0.0,97,0.00,,,0.16,Wunderground v.1.15,2013-05-03 04:50:00,